Guadalupe Pass, TX

9:56 AM MDT on August 17, 2017 (GMT -0600)
Guadalupe Pass

Weather History for KGDP - February, 2013

Change the Weather History Date:

Thursday, February 7, 2013

  Actual Average Record
Temperature  
Mean Temperature 48 °F -  
Max Temperature 55 °F 51 °F 73 °F (2009)
Min Temperature 41 °F 32 °F 19 °F (2014)
Degree Days  
Heating Degree Days 17    
Moisture  
Dew Point 22 °F    
Average Humidity 37    
Maximum Humidity 51    
Minimum Humidity 25    
Precipitation  
Precipitation 0.00 in - - ()
Sea Level Pressure  
Sea Level Pressure 30.02 in    
Wind  
Wind Speed 16 mph (ENE)    
Max Wind Speed 32 mph    
Max Gust Speed 32 mph    
Visibility 9 miles    
Events      
Averages and records for this station are not official NWS values.
T = Trace of Precipitation, MM = Missing Value Source: NWS Daily Summary

Daily Weather History Graph

Daily Weather History Graph

Search for Another Location

Airport or City:

Trip Planner

Search our weather history database for the weather conditions in past years. The results will help you decide how hot, cold, wet, or windy it might be!

Date:

Astronomy

Feb. 07, 2013 Rise Set
Actual Time 6:47 AM MST 5:39 PM MST
Civil Twilight 6:22 AM MST 6:04 PM MST
Nautical Twilight 5:53 AM MST 6:33 PM MST
Astronomical Twilight 5:25 AM MST 7:01 PM MST
Moon 4:24 AM MST (2/7) 3:11 PM MST (2/7)
Length of Visible Light 11h 41m
Length of Day
10h 51m
Waning Crescent, 8% of the Moon is Illuminated
Feb 7
Waning Crescent
Feb 10
New
Feb 17
First Quarter
Feb 25
Full
Mar 4
Last Quarter

Hourly Weather History & Observations

Time (MST) Temp. Windchill Dew Point Humidity Pressure Visibility Wind Dir Wind Speed Gust Speed Precip Events Conditions
12:51 AM 48.9 °F - 24.1 °F 38% 29.85 in 10.0 mi WSW 25.3 mph 32.2 mph N/A   Clear
1:51 AM 46.0 °F 39.0 °F 25.0 °F 44% 29.87 in 10.0 mi WSW 17.3 mph 23.0 mph N/A   Clear
2:51 AM 43.0 °F 36.4 °F 24.8 °F 49% 29.89 in 10.0 mi WSW 12.7 mph 20.7 mph N/A   Clear
3:51 AM 44.1 °F 38.1 °F 24.1 °F 45% 29.91 in 10.0 mi WSW 11.5 mph 21.9 mph N/A   Clear
4:51 AM 42.1 °F 35.7 °F 24.1 °F 49% 29.93 in 10.0 mi SW 11.5 mph - N/A   Clear
5:51 AM 41.0 °F 34.3 °F 24.1 °F 51% 29.96 in 10.0 mi SW 11.5 mph - N/A   Clear
6:51 AM 46.0 °F 41.9 °F 25.0 °F 44% 29.99 in 9.0 mi WNW 8.1 mph - N/A   Clear
7:51 AM 46.0 °F 44.8 °F 26.1 °F 46% 30.02 in 9.0 mi WSW 3.5 mph - N/A   Clear
8:51 AM 48.0 °F - 26.1 °F 42% 30.06 in 9.0 mi SW 6.9 mph - N/A   Clear
9:51 AM 52.0 °F - 27.0 °F 38% 30.05 in 9.0 mi Calm Calm - N/A   Clear
10:51 AM 54.0 °F - 24.1 °F 31% 30.05 in 9.0 mi East 9.2 mph - N/A   Clear
11:51 AM 55.0 °F - 21.0 °F 27% 30.04 in 9.0 mi East 12.7 mph - N/A   Clear
12:51 PM 55.0 °F - 21.0 °F 27% 30.03 in 9.0 mi ENE 10.4 mph - N/A   Clear
1:51 PM 55.0 °F - 19.9 °F 25% 30.02 in 9.0 mi ENE 12.7 mph - N/A   Clear
2:51 PM 55.9 °F - 19.9 °F 25% 30.02 in 9.0 mi East 15.0 mph - N/A   Clear
3:51 PM 54.0 °F - 19.9 °F 26% 30.03 in 9.0 mi ENE 16.1 mph - N/A   Clear
4:51 PM 52.0 °F - 19.9 °F 28% 30.05 in 9.0 mi ENE 23.0 mph - N/A   Clear
5:51 PM 48.9 °F - 19.9 °F 32% 30.07 in 9.0 mi ENE 23.0 mph - N/A   Clear
6:51 PM 46.9 °F - 19.9 °F 34% 30.09 in 10.0 mi NE 21.9 mph - N/A   Clear
7:51 PM 46.0 °F 38.5 °F 19.9 °F 35% 30.11 in 10.0 mi NE 19.6 mph - N/A   Clear
8:51 PM 46.0 °F 38.5 °F 19.9 °F 35% 30.12 in 10.0 mi NE 19.6 mph - N/A   Clear
9:51 PM 46.0 °F 38.3 °F 19.9 °F 35% 30.11 in 10.0 mi NE 20.7 mph - N/A   Clear
10:51 PM 43.0 °F 32.2 °F 21.9 °F 43% 30.10 in 9.0 mi NE 32.2 mph - N/A   Clear
11:51 PM 42.1 °F 31.5 °F 21.0 °F 43% 30.10 in 9.0 mi NE 28.8 mph - N/A   Clear